Location: �terpigny
(49.8910°N, 2.9249°E)
Time: 03:44:27
(UTC+00:00)

Cosmos 332 Rocket - Pass Details

Date: 03 June 2022
Orbit: 681 x 703 km, 74.0° (Epoch: 05 July)

Event Time Altitude Azimuth Distance (km) Brightness Sun altitude
Exits shadow 22:13:28 15° 116° (ESE) 1,788 5.5 -14.8°
Maximum altitude 22:14:48 17° 96° (E) 1,700 5.5 -14.9°
Drops below altitude 10° 22:17:51 10° 57° (ENE) 2,132 6.5 -15.1°
Sets 22:20:51 0° 37° (NE) 3,055 7.6 -15.2°
